Skip Page Navigation
NASA JPL Caltech
NASA Logo - Jet Propulsion Laboratory + View the NASA Portal
+ Center for Near-Earth Object Studies
JPL Home Earth Solar System Stars & Galaxies Technology
JPL Solar System Dynamics
BODIES ORBITS EPHEMERIDES TOOLS PHYSICAL DATA DISCOVERY FAQ SITE MAP
JPL Small-Body Database Browser
Search: [ help ]  
43299 (2000 GD73)
Classification: Main-belt Asteroid          SPK-ID: 2043299
Ephemeris | Orbit Diagram | Orbital Elements | Mission Design | Physical Parameters | Discovery Circumstances | Close-Approach Data ]

[ show orbit diagram ]
Orbital Elements at Epoch 2459200.5 (2020-Dec-17.0) TDB
Reference: JPL 25 (heliocentric ecliptic J2000)
 Element Value Uncertainty (1-sigma)   Units 
e .1721913072616343 2.8358e-08  
a 2.521430045853538 9.8784e-09 au
q 2.087261710089255 7.41e-08 au
i 1.014926607226098 5.2519e-06 deg
node 202.9199432913886 0.00017588 deg
peri 91.59387410298261 0.00017679 deg
M 357.4460470543718 1.8105e-05 deg
tp 2459210.874787332753
(2020-Dec-27.37478733)
7.3555e-05 TDB
period 1462.408869428991
4.00
8.5941e-06
2.353e-08
d
yr
n .2461691853254177 1.4466e-09 deg/d
Q 2.955598381617821 1.1579e-08 au
  Orbit Determination Parameters
   # obs. used (total)      876  
   data-arc span      10361 days (28.37 yr)  
   first obs. used      1992-04-24  
   last obs. used      2020-09-05  
   planetary ephem.      DE441  
   SB-pert. ephem.      SB441-N16  
   condition code      0  
   norm. resid. RMS      .61174  
   source      ORB  
   producer      Otto Matic  
   solution date      2021-Apr-13 09:18:30  

Additional Information
 Earth MOID = 1.06955 au 
 Jupiter MOID = 2.23506 au 
 T_jup = 3.435 
[ show covariance matrix ]

Ephemeris | Orbit Diagram | Orbital Elements | Mission Design | Physical Parameters | Discovery Circumstances | Close-Approach Data ]

Physical Parameter Table
Parameter Symbol Value Units Sigma Reference Notes
absolute magnitude H 16.11   n/a E2021B10  
rotation period rot_per 7.11 h n/a LCDB (Rev. 2020-October); Warner et al., 2009 Result based on fragmentary lightcurve(s), may be completely wrong.
Published Reference List:
[Chang, C.-K.; Lin, H.-W.; Ip, W.-H.; Prince, T.A.; et al. (2016) Astrophys. J. Sup. Ser. 227, A20.]

43299 (2000 GD73)          Discovered 2000-Apr-05 by LINEAR at Socorro
Reference: 20020624/Numbers.arcLast Updated: 2004-04-19

[ show close-approach data ]
Ephemeris | Orbit Diagram | Orbital Elements | Mission Design | Physical Parameters | Discovery Circumstances | Close-Approach Data ]
ABOUT SSD CREDITS/AWARDS PRIVACY/COPYRIGHT GLOSSARY LINKS
FirstGov 2021-Jun-16 18:53 UT
(server date/time)  
NASA Home Page
Site Manager:   Ryan S. Park
Webmaster  Alan B. Chamberlin